Montauk, NY
on Thursday, December 7, 2017

Thursday
       
Previous Day Next Day
Daily Summary
 ActualAverage (KHTO)Record (KHTO)
Temperature
Mean Temperature °F °C °F °C  
Max Temperature 46°F 8°C 47°F 8°C 69°F 20°C (1998)
Min Temperature 42°F 6°C 29°F -1°C 18°F -7°C (1935)
Degree Days
Heating Degree Days 21    
Moisture
Dew Point 26°F -3°C   
Average Humidity 48    
Maximum Humidity 62    
Minimum Humidity 37    
Precipitation
Precipitation 0.00 in / 0.00 cm in / cm in / cm ()
Wind
Wind Speed 11 mph / 18 km/h   
Max Wind Speed 16 mph / 26 km/h   
Max Gust Speed 30 mph / 48 km/h   
Averages and records for this station are not official NWS values.
Key: T is trace of precipitation, MM is missing value
Source: NWS Daily Summary
Seasonal Weather Averages
Time(EST)TemperatureDew PointHumidity Pressure Visibility Wind DirectionWind SpeedGust SpeedPrecipitationEvents Conditions
12:54 AM 43.0°F 6.1°C 27.0°F -2.8°C 53% 29.99 in / 1015.5 hPa - WSW 9.2 mph / 14.8 km/h - N/A   Unknown
1:54 AM 43.0°F 6.1°C 25.0°F -3.9°C 49% 29.99 in / 1015.5 hPa - WSW 10.4 mph / 16.7 km/h 17.3 mph / 27.8 km/h N/A   Unknown
2:54 AM 43.0°F 6.1°C 26.1°F -3.3°C 51% 29.98 in / 1015.0 hPa - WSW 8.1 mph / 13.0 km/h - N/A   Unknown
3:54 AM 43.0°F 6.1°C 26.1°F -3.3°C 51% 29.96 in / 1014.4 hPa - WSW 9.2 mph / 14.8 km/h 17.3 mph / 27.8 km/h N/A   Unknown
4:54 AM 43.0°F 6.1°C 28.9°F -1.7°C 58% 29.96 in / 1014.4 hPa - West 10.4 mph / 16.7 km/h - N/A   Unknown
5:54 AM 43.0°F 6.1°C 30.9°F -0.6°C 62% 29.96 in / 1014.6 hPa - WSW 8.1 mph / 13.0 km/h - N/A   Unknown
6:54 AM 44.1°F 6.7°C 30.9°F -0.6°C 60% 29.98 in / 1015.1 hPa - West 10.4 mph / 16.7 km/h 19.6 mph / 31.5 km/h N/A   Unknown
7:54 AM 44.1°F 6.7°C 28.9°F -1.7°C 55% 29.99 in / 1015.4 hPa - West 12.7 mph / 20.4 km/h 20.7 mph / 33.3 km/h N/A   Unknown
8:54 AM 45.0°F 7.2°C 30.9°F -0.6°C 58% 30.00 in / 1015.8 hPa - WNW 10.4 mph / 16.7 km/h 20.7 mph / 33.3 km/h N/A   Unknown
9:54 AM 46.0°F 7.8°C 27.0°F -2.8°C 47% 30.00 in / 1015.7 hPa - West 11.5 mph / 18.5 km/h 20.7 mph / 33.3 km/h N/A   Unknown
10:54 AM 46.0°F 7.8°C 27.0°F -2.8°C 47% 29.99 in / 1015.5 hPa - West 11.5 mph / 18.5 km/h 20.7 mph / 33.3 km/h N/A   Unknown
11:54 AM 46.0°F 7.8°C 24.1°F -4.4°C 42% 29.97 in / 1014.8 hPa - West 13.8 mph / 22.2 km/h 21.9 mph / 35.2 km/h N/A   Unknown
12:54 PM 46.0°F 7.8°C 24.1°F -4.4°C 42% 29.94 in / 1013.9 hPa - West 10.4 mph / 16.7 km/h 23.0 mph / 37.0 km/h N/A   Unknown
1:54 PM 46.9°F 8.3°C 24.1°F -4.4°C 41% 29.93 in / 1013.5 hPa - West 11.5 mph / 18.5 km/h 19.6 mph / 31.5 km/h N/A   Unknown
2:54 PM 45.0°F 7.2°C 21.0°F -6.1°C 39% 29.93 in / 1013.5 hPa - West 15.0 mph / 24.1 km/h 24.2 mph / 38.9 km/h N/A   Unknown
3:54 PM 44.1°F 6.7°C 23.0°F -5.0°C 43% 29.95 in / 1014.0 hPa - West 12.7 mph / 20.4 km/h 28.8 mph / 46.3 km/h N/A   Unknown
4:54 PM 44.1°F 6.7°C 24.1°F -4.4°C 45% 29.95 in / 1014.1 hPa - West 15.0 mph / 24.1 km/h 21.9 mph / 35.2 km/h N/A   Unknown
5:54 PM 44.1°F 6.7°C 24.1°F -4.4°C 45% 29.95 in / 1014.2 hPa - West 10.4 mph / 16.7 km/h 20.7 mph / 33.3 km/h N/A   Unknown
6:54 PM 45.0°F 7.2°C 19.9°F -6.7°C 37% 29.97 in / 1014.7 hPa - West 16.1 mph / 25.9 km/h 29.9 mph / 48.2 km/h N/A   Unknown
7:54 PM 42.1°F 5.6°C 23.0°F -5.0°C 47% 29.99 in / 1015.4 hPa - SW 8.1 mph / 13.0 km/h - N/A   Unknown
8:54 PM 42.1°F 5.6°C 23.0°F -5.0°C 47% 30.00 in / 1015.7 hPa - WSW 11.5 mph / 18.5 km/h 20.7 mph / 33.3 km/h N/A   Unknown
9:54 PM 44.1°F 6.7°C 24.1°F -4.4°C 45% 30.01 in / 1016.1 hPa - WSW 11.5 mph / 18.5 km/h 19.6 mph / 31.5 km/h N/A   Unknown
10:54 PM 44.1°F 6.7°C 25.0°F -3.9°C 47% 30.02 in / 1016.4 hPa - WSW 10.4 mph / 16.7 km/h 23.0 mph / 37.0 km/h N/A   Unknown
11:54 PM 44.1°F 6.7°C 26.1°F -3.3°C 49% 30.02 in / 1016.4 hPa - WSW 13.8 mph / 22.2 km/h 21.9 mph / 35.2 km/h N/A   Unknown